Nebraska City, NE

12:11 AM CDT on September 22, 2017 (GMT -0500)
Nebraska City Municipal

Weather History for KAFK - March, 2014

Change the Weather History Date:

Sunday, March 16, 2014

  Actual Average (KSDA) Record (KSDA)
Temperature  
Mean Temperature 31 °F -  
Max Temperature 38 °F 50 °F 86 °F (2015)
Min Temperature 23 °F 28 °F 14 °F (1970)
Degree Days  
Heating Degree Days 34    
Moisture  
Dew Point 19 °F    
Average Humidity 63    
Maximum Humidity 93    
Minimum Humidity 38    
Precipitation  
Precipitation 0.00 in - - ()
Sea Level Pressure  
Sea Level Pressure 30.23 in    
Wind  
Wind Speed 17 mph (NE)    
Max Wind Speed 28 mph    
Max Gust Speed 34 mph    
Visibility 9 miles    
Events Snow    
Averages and records for this station are not official NWS values.
T = Trace of Precipitation, MM = Missing Value Source: NWS Daily Summary

Daily Weather History Graph

Daily Weather History Graph

Search for Another Location

Airport or City:

Trip Planner

Search our weather history database for the weather conditions in past years. The results will help you decide how hot, cold, wet, or windy it might be!

Date:

Astronomy

Mar. 16, 2014 Rise Set
Actual Time 7:33 AM CDT 7:31 PM CDT
Civil Twilight 7:06 AM CDT 7:58 PM CDT
Nautical Twilight 6:34 AM CDT 8:30 PM CDT
Astronomical Twilight 6:02 AM CDT 9:02 PM CDT
Moon 7:50 PM CDT (3/16) 7:17 AM CDT (3/16)
Length of Visible Light 12h 52m
Length of Day
11h 58m
Full, 100% of the Moon is Illuminated
Mar 16
Full
Mar 16
Full
Mar 23
Last Quarter
Mar 30
New
Apr 7
First Quarter

Hourly Weather History & Observations

Time (CDT) Temp. Windchill Dew Point Humidity Pressure Visibility Wind Dir Wind Speed Gust Speed Precip Events Conditions
12:15 AM 32.5 °F 19.4 °F 28.4 °F 85% 30.17 in 10.0 mi NNE 25.3 mph 34.5 mph N/A   Overcast
12:35 AM 32.2 °F 19.1 °F 28.0 °F 85% 30.18 in 10.0 mi NNE 24.2 mph 31.1 mph N/A   Overcast
1:15 AM 31.1 °F 18.0 °F 27.5 °F 87% 30.20 in 10.0 mi NNE 23.0 mph 29.9 mph N/A   Overcast
1:35 AM 31.1 °F 16.9 °F 27.7 °F 87% 30.20 in 7.0 mi NNE 27.6 mph 32.2 mph N/A   Overcast
1:55 AM 30.4 °F 17.7 °F 28.2 °F 92% 30.21 in 3.0 mi NNE 20.7 mph 26.5 mph N/A Snow Light Snow
2:15 AM 30.0 °F 16.3 °F 28.2 °F 93% 30.21 in 3.0 mi NNE 24.2 mph 28.8 mph N/A Snow Light Snow
2:35 AM 29.7 °F 16.7 °F 27.3 °F 91% 30.23 in 7.0 mi NNE 20.7 mph 27.6 mph N/A Snow Light Snow
2:55 AM 29.3 °F 16.2 °F 27.0 °F 91% 30.24 in 3.0 mi NNE 20.7 mph 28.8 mph N/A Snow Light Snow
3:15 AM 28.9 °F 16.1 °F 26.4 °F 90% 30.25 in 2.5 mi NNE 19.6 mph 29.9 mph N/A Snow Light Snow
3:35 AM 28.4 °F 15.1 °F 25.7 °F 90% 30.25 in 3.0 mi NNE 20.7 mph 31.1 mph N/A Snow Light Snow
3:55 AM 28.4 °F 14.7 °F 25.0 °F 87% 30.25 in 10.0 mi NNE 21.9 mph 27.6 mph N/A Snow Light Snow
4:15 AM 28.9 °F 16.1 °F 24.8 °F 84% 30.24 in 10.0 mi NNE 19.6 mph 23.0 mph N/A   Overcast
4:35 AM 28.8 °F 15.9 °F 23.7 °F 81% 30.24 in 10.0 mi NNE 19.6 mph 26.5 mph N/A   Overcast
4:55 AM 28.4 °F 15.4 °F 23.0 °F 80% 30.25 in 10.0 mi NNE 19.6 mph 26.5 mph N/A   Overcast
5:15 AM 27.9 °F 14.7 °F 21.6 °F 77% 30.25 in 10.0 mi NNE 19.6 mph - N/A   Overcast
5:35 AM 26.8 °F 12.6 °F 19.4 °F 74% 30.26 in 10.0 mi NNE 21.9 mph 26.5 mph N/A   Overcast
5:55 AM 26.4 °F 14.0 °F 19.2 °F 74% 30.27 in 10.0 mi NNE 16.1 mph 23.0 mph N/A   Mostly Cloudy
6:15 AM 26.2 °F 13.8 °F 18.7 °F 73% 30.27 in 10.0 mi NNE 16.1 mph 21.9 mph N/A   Scattered Clouds
6:35 AM 25.5 °F 12.4 °F 18.1 °F 74% 30.26 in 10.0 mi NNE 17.3 mph - N/A   Scattered Clouds
7:15 AM 24.8 °F 11.5 °F 17.6 °F 74% 30.27 in 10.0 mi NNE 17.3 mph - N/A   Clear
7:35 AM 24.8 °F 11.5 °F 18.0 °F 75% 30.27 in 10.0 mi NNE 17.3 mph - N/A   Clear
7:55 AM 24.8 °F 11.5 °F 17.8 °F 75% 30.28 in 10.0 mi NNE 17.3 mph - N/A   Clear
8:15 AM 24.8 °F 11.1 °F 17.6 °F 74% 30.29 in 10.0 mi NNE 18.4 mph - N/A   Clear
8:35 AM 25.3 °F 12.6 °F 17.8 °F 73% 30.30 in 10.0 mi NNE 16.1 mph 23.0 mph N/A   Clear
8:55 AM 25.9 °F 12.9 °F 17.8 °F 71% 30.31 in 10.0 mi NNE 17.3 mph 23.0 mph N/A   Clear
9:15 AM 26.4 °F 13.2 °F 17.6 °F 69% 30.31 in 10.0 mi NNE 18.4 mph - N/A   Clear
9:35 AM 26.4 °F 14.0 °F 17.6 °F 69% 30.33 in 10.0 mi NNE 16.1 mph 24.2 mph N/A   Clear
9:55 AM 27.1 °F 14.5 °F 18.0 °F 68% 30.34 in 10.0 mi NNE 17.3 mph 23.0 mph N/A   Clear
10:15 AM 28.4 °F 16.2 °F 18.7 °F 67% 30.35 in 10.0 mi NNE 17.3 mph 24.2 mph N/A   Clear
10:35 AM 29.5 °F 17.2 °F 19.4 °F 66% 30.35 in 10.0 mi NNE 18.4 mph 23.0 mph N/A   Clear
10:55 AM 30.6 °F 19.0 °F 19.0 °F 62% 30.35 in 10.0 mi NNE 17.3 mph 23.0 mph N/A   Clear
11:15 AM 31.8 °F 20.2 °F 18.7 °F 58% 30.33 in 10.0 mi NNE 18.4 mph - N/A   Clear
11:35 AM 32.0 °F 20.8 °F 17.6 °F 55% 30.33 in 10.0 mi NNE 17.3 mph 23.0 mph N/A   Clear
11:55 AM 33.3 °F 22.5 °F 17.1 °F 51% 30.33 in 10.0 mi NE 17.3 mph 23.0 mph N/A   Clear
12:15 PM 34.2 °F 24.4 °F 17.2 °F 50% 30.32 in 10.0 mi NE 15.0 mph 23.0 mph N/A   Clear
12:35 PM 34.7 °F 24.7 °F 15.8 °F 46% 30.30 in 10.0 mi NE 16.1 mph 23.0 mph N/A   Clear
12:55 PM 34.9 °F 25.3 °F 15.6 °F 45% 30.30 in 10.0 mi NNE 15.0 mph 21.9 mph N/A   Clear
1:15 PM 35.4 °F 26.4 °F 15.1 °F 43% 30.30 in 10.0 mi NE 13.8 mph 21.9 mph N/A   Clear
1:55 PM 36.3 °F 28.4 °F 14.9 °F 42% 30.28 in 10.0 mi NE 11.5 mph 19.6 mph N/A   Clear
2:15 PM 37.4 °F 29.3 °F 13.6 °F 38% 30.27 in 10.0 mi NNE 12.7 mph 20.7 mph N/A   Clear
2:35 PM 37.6 °F 30.0 °F 14.9 °F 40% 30.26 in 10.0 mi ENE 11.5 mph 17.3 mph N/A   Clear
2:55 PM 37.4 °F 29.8 °F 15.1 °F 40% 30.24 in 10.0 mi ENE 11.5 mph 20.7 mph N/A   Clear
3:15 PM 37.6 °F 30.0 °F 14.0 °F 38% 30.22 in 10.0 mi NE 11.5 mph 18.4 mph N/A   Clear
3:35 PM 37.8 °F 29.8 °F 14.9 °F 39% 30.21 in 10.0 mi NNE 12.7 mph 17.3 mph N/A   Clear
3:55 PM 37.8 °F 31.8 °F 15.6 °F 41% 30.22 in 10.0 mi ENE 8.1 mph - N/A   Clear
4:15 PM 37.0 °F 30.4 °F 14.4 °F 40% 30.20 in 10.0 mi ENE 9.2 mph - N/A   Clear
4:35 PM 38.1 °F 31.7 °F 14.2 °F 38% 30.20 in 10.0 mi NE 9.2 mph - N/A   Clear
4:55 PM 37.6 °F 31.6 °F 14.7 °F 39% 30.19 in 10.0 mi NNE 8.1 mph - N/A   Clear
5:15 PM 37.2 °F 29.6 °F 14.7 °F 40% 30.19 in 10.0 mi ENE 11.5 mph 17.3 mph N/A   Clear
5:35 PM 37.4 °F 31.4 °F 14.7 °F 40% 30.19 in 10.0 mi NE 8.1 mph - N/A   Clear
5:55 PM 37.0 °F 31.6 °F 15.3 °F 41% 30.18 in 10.0 mi NE 6.9 mph - N/A   Clear
6:15 PM 36.7 °F 30.5 °F 15.3 °F 42% 30.17 in 10.0 mi NNE 8.1 mph - N/A   Clear
6:35 PM 36.0 °F 30.3 °F 15.4 °F 43% 30.16 in 10.0 mi ENE 6.9 mph - N/A   Clear
6:55 PM 35.2 °F 29.5 °F 15.8 °F 45% 30.16 in 10.0 mi East 6.9 mph - N/A   Clear
7:15 PM 34.0 °F 28.8 °F 15.6 °F 47% 30.16 in 10.0 mi ENE 5.8 mph - N/A   Clear
7:35 PM 31.8 °F 27.3 °F 15.4 °F 51% 30.16 in 10.0 mi East 4.6 mph - N/A   Clear
7:55 PM 30.9 °F 27.5 °F 14.9 °F 52% 30.18 in 10.0 mi East 3.5 mph - N/A   Clear
8:15 PM 29.3 °F 22.3 °F 15.3 °F 56% 30.16 in 10.0 mi ESE 6.9 mph - N/A   Clear
8:35 PM 29.5 °F 23.4 °F 15.6 °F 56% 30.16 in 10.0 mi ESE 5.8 mph - N/A   Clear
8:55 PM 29.1 °F 21.3 °F 16.2 °F 58% 30.14 in 10.0 mi ESE 8.1 mph - N/A   Clear
9:15 PM 28.9 °F 21.1 °F 15.8 °F 58% 30.14 in 10.0 mi ESE 8.1 mph - N/A   Clear
9:35 PM 27.9 °F 22.6 °F 15.8 °F 61% 30.14 in 10.0 mi ESE 4.6 mph - N/A   Clear
9:55 PM 28.4 °F 22.2 °F 16.3 °F 61% 30.13 in 10.0 mi SE 5.8 mph - N/A   Clear
10:15 PM 28.0 °F 22.8 °F 16.0 °F 61% 30.12 in 10.0 mi SE 4.6 mph - N/A   Clear
10:35 PM 27.5 °F 21.1 °F 16.3 °F 63% 30.12 in 10.0 mi SE 5.8 mph - N/A   Clear
10:55 PM 26.8 °F 18.5 °F 16.3 °F 65% 30.11 in 10.0 mi SE 8.1 mph - N/A   Clear
11:15 PM 26.6 °F 20.0 °F 16.5 °F 66% 30.10 in 10.0 mi SSE 5.8 mph - N/A   Clear
11:35 PM 27.0 °F 19.5 °F 16.7 °F 65% 30.09 in 10.0 mi SSE 6.9 mph - N/A   Clear
11:55 PM 23.9 °F 16.8 °F 16.3 °F 73% 30.07 in 10.0 mi SSE 5.8 mph - N/A   Clear